Cecil Field, FL

10:42 PM EDT on April 29, 2017 (GMT -0400)
Cecil

Weather History for KVQQ - July, 2013

Change the Weather History Date:

Thursday, July 4, 2013

  Actual Average (KNIP) Record (KNIP)
Temperature  
Mean Temperature 78 °F -  
Max Temperature 86 °F 88 °F 98 °F (2016)
Min Temperature 69 °F 73 °F 71 °F (2002)
Cooling Degree Days 14    
Growing Degree Days 28 (Base 50)    
Moisture  
Dew Point 74 °F    
Average Humidity 94    
Maximum Humidity 100    
Minimum Humidity 66    
Precipitation  
Precipitation 0.14 in - - ()
Sea Level Pressure  
Sea Level Pressure 30.15 in    
Wind  
Wind Speed 4 mph (SE)    
Max Wind Speed 20 mph    
Max Gust Speed -    
Visibility 7 miles    
Events Rain , Thunderstorm    
Averages and records for this station are not official NWS values.
T = Trace of Precipitation, MM = Missing Value Source: NWS Daily Summary

Daily Weather History Graph

Daily Weather History Graph

Search for Another Location

Airport or City:

Trip Planner

Search our weather history database for the weather conditions in past years. The results will help you decide how hot, cold, wet, or windy it might be!

Date:

Astronomy

Jul. 04, 2013 Rise Set
Actual Time 6:30 AM EDT 8:33 PM EDT
Civil Twilight 6:03 AM EDT 9:00 PM EDT
Nautical Twilight 5:30 AM EDT 9:33 PM EDT
Astronomical Twilight 4:54 AM EDT 10:08 PM EDT
Moon 3:41 AM EDT (7/4) 5:40 PM EDT (7/4)
Length of Visible Light 14h 56m
Length of Day
14h 02m
Waning Crescent, 11% of the Moon is Illuminated
Jul 4
Waning Crescent
Jul 8
New
Jul 15
First Quarter
Jul 22
Full
Jul 29
Last Quarter

Hourly Weather History & Observations

Time (EDT) Temp. Heat Index Dew Point Humidity Pressure Visibility Wind Dir Wind Speed Gust Speed Precip Events Conditions
12:15 AM 77.0 °F - 75.2 °F 94% 30.15 in 10.0 mi ESE 3.5 mph - N/A   Partly Cloudy
12:35 AM 77.0 °F - 75.2 °F 94% 30.15 in 10.0 mi SE 3.5 mph - N/A   Clear
12:55 AM 77.0 °F - 75.2 °F 94% 30.15 in 10.0 mi ESE 5.8 mph - N/A   Clear
1:15 AM 77.0 °F - 75.2 °F 94% 30.14 in 10.0 mi SE 3.5 mph - N/A   Clear
1:35 AM 75.2 °F - 75.2 °F 100% 30.14 in 10.0 mi SE 3.5 mph - N/A   Clear
1:55 AM 75.2 °F - 75.2 °F 100% 30.14 in 10.0 mi ESE 3.5 mph - N/A   Clear
2:15 AM 75.2 °F - 75.2 °F 100% 30.14 in 8.0 mi Calm Calm - N/A   Clear
2:35 AM 75.2 °F - 75.2 °F 100% 30.13 in 8.0 mi Calm Calm - N/A   Clear
2:55 AM 75.2 °F - 75.2 °F 100% 30.13 in 7.0 mi Calm Calm - N/A   Clear
3:15 AM 75.2 °F - 75.2 °F 100% 30.12 in 7.0 mi Calm Calm - N/A   Clear
3:35 AM 75.2 °F - 75.2 °F 100% 30.12 in 7.0 mi Calm Calm - N/A   Clear
3:55 AM 75.2 °F - 75.2 °F 100% 30.12 in 7.0 mi Calm Calm - N/A   Clear
4:15 AM 75.2 °F - 75.2 °F 100% 30.12 in 6.0 mi East 3.5 mph - N/A   Clear
4:35 AM 75.2 °F - 75.2 °F 100% 30.12 in 7.0 mi Calm Calm - N/A   Clear
4:55 AM 73.4 °F - 73.4 °F 100% 30.12 in 6.0 mi Calm Calm - N/A   Clear
5:15 AM 73.4 °F - 73.4 °F 100% 30.12 in 7.0 mi Calm Calm - N/A   Clear
5:35 AM 73.4 °F - 73.4 °F 100% 30.13 in 7.0 mi Calm Calm - N/A   Clear
5:55 AM 73.4 °F - 73.4 °F 100% 30.13 in 8.0 mi Calm Calm - N/A   Clear
6:15 AM 73.4 °F - 73.4 °F 100% 30.13 in 8.0 mi Calm Calm - N/A   Clear
6:35 AM 73.4 °F - 73.4 °F 100% 30.13 in 5.0 mi Calm Calm - N/A   Clear
6:50 AM 73.4 °F - 73.4 °F 100% 30.13 in 10.0 mi Calm Calm - N/A   Clear
7:50 AM 75.2 °F - 75.2 °F 100% 30.14 in 10.0 mi Calm Calm - N/A   Clear
8:50 AM 78.8 °F - 75.2 °F 89% 30.15 in 10.0 mi Calm Calm - N/A   Clear
9:50 AM 82.4 °F 89.5 °F 75.2 °F 79% 30.16 in 10.0 mi SSE 11.5 mph - N/A   Mostly Cloudy
10:50 AM 84.2 °F 92.3 °F 75.2 °F 74% 30.16 in 10.0 mi East 11.5 mph - N/A   Mostly Cloudy
11:50 AM 84.2 °F 92.3 °F 75.2 °F 74% 30.16 in 10.0 mi ESE 17.3 mph - N/A   Mostly Cloudy
12:50 PM 86.0 °F 93.4 °F 73.4 °F 66% 30.15 in 10.0 mi SE 19.6 mph - N/A   Mostly Cloudy
1:50 PM 78.8 °F - 75.2 °F 89% 30.14 in 7.0 mi SE 8.1 mph - N/A   Mostly Cloudy
2:50 PM 86.0 °F 95.1 °F 75.2 °F 70% 30.11 in 10.0 mi SE 17.3 mph - N/A   Mostly Cloudy
3:50 PM 84.2 °F 92.3 °F 75.2 °F 74% 30.11 in 10.0 mi SE 13.8 mph - N/A   Mostly Cloudy
4:50 PM 84.2 °F 92.3 °F 75.2 °F 74% 30.11 in 7.0 mi ESE 16.1 mph - N/A   Scattered Clouds
5:50 PM 82.4 °F 89.5 °F 75.2 °F 79% 30.11 in 7.0 mi SE 11.5 mph - N/A   Partly Cloudy
6:50 PM 78.8 °F - 75.2 °F 89% 30.12 in 7.0 mi Calm Calm - N/A   Mostly Cloudy
7:20 PM 75.2 °F - 73.4 °F 94% 30.16 in 1.0 mi SW 13.8 mph - N/A Rain Heavy Rain
7:50 PM 71.6 °F - 71.6 °F 100% 30.16 in 0.5 mi ENE 13.8 mph - N/A Rain Heavy Rain
8:15 PM 71.6 °F - 71.6 °F 100% 30.19 in 1.8 mi Calm Calm - 0.02 in Rain , Thunderstorm Light Thunderstorms and Rain
8:35 PM 71.6 °F - 71.6 °F 100% 30.18 in 7.0 mi Calm Calm - 0.03 in Rain , Thunderstorm Light Rain
8:55 PM 71.6 °F - 71.6 °F 100% 30.19 in 10.0 mi Calm Calm - 0.03 in   Scattered Clouds
9:15 PM 71.6 °F - 71.6 °F 100% 30.19 in 2.5 mi Calm Calm - 0.07 in Rain Light Rain
9:35 PM 71.6 °F - 71.6 °F 100% 30.19 in 1.8 mi Calm Calm - 0.10 in Rain , Thunderstorm Light Rain
9:55 PM 71.6 °F - 71.6 °F 100% 30.19 in 5.0 mi Calm Calm - 0.11 in Rain Light Rain
10:15 PM 71.6 °F - 71.6 °F 100% 30.18 in 6.0 mi Calm Calm - N/A   Clear
10:35 PM 71.6 °F - 71.6 °F 100% 30.18 in 4.0 mi Calm Calm - N/A   Clear
10:55 PM 71.6 °F - 71.6 °F 100% 30.19 in 3.0 mi Calm Calm - N/A   Clear
11:15 PM 71.6 °F - 71.6 °F 100% 30.18 in 2.0 mi Calm Calm - N/A   Clear
11:35 PM 71.6 °F - 71.6 °F 100% 30.18 in 1.0 mi Calm Calm - N/A   Mostly Cloudy
11:55 PM 69.8 °F - 69.8 °F 100% 30.18 in 0.8 mi Calm Calm - N/A   Mist